User: anonymous   Login
Location: Unspecified
(0.0000°N, 0.0000°E)
Time: 09:38:30
(UTC+00:00)
Language:

Aureole 3 - Orbit

View from above orbital plane
View from above orbital plane
View from above satellite
View from above satellite

Ground track
Ground track

The orbit data is extracted from the following two-line orbital elements,

1 12848U 81094A   17295.91226139 +.00001712 +00000-0 +10067-3 0  9990
2 12848 082.4839 171.6897 0601704 140.7538 223.8919 14.23180384807748
Epoch (UTC): 22 October 2017 21:53:39
Eccentricity: 0.0601704
inclination: 82.4839°
perigee height: 382 km
apogee height: 1247 km
right ascension of ascending node: 171.6897°
argument of perigee: 140.7538°
revolutions per day: 14.23180384
mean anomaly at epoch: 223.8919°
orbit number at epoch: 80774

The dashed part of the orbit path shows where the satellite is in the earth's shadow,  

DLR